Weather History for Kahului, HI

Change the Weather History Date:

Tuesday, November 1, 2011

  Actual Average Record
Temperature  
Mean Temperature 77 °F 77 °F  
Max Temperature 86 °F 86 °F 93 °F (1950)
Min Temperature 67 °F 69 °F 62 °F (2012)
Degree Days  
Heating Degree Days 0 0  
Month to date heating degree days 0 0  
Since 1 July heating degree days 0 0  
Cooling Degree Days 12 12  
Month to date cooling degree days 12 12  
Year to date cooling degree days 3382 3388  
Growing Degree Days 26 (Base 50)    
Moisture  
Dew Point 65 °F    
Average Humidity 69    
Maximum Humidity 87    
Minimum Humidity 51    
Precipitation  
Precipitation 0.00 in 0.05 in 1.77 in (1961)
Month to date precipitation 0.00 0.05  
Year to date precipitation 10.53 12.33  
Snow  
Snow 0.00 in - - ()
Month to date snowfall 0.0  
Since 1 July snowfall 0.0  
Since 1 September snowfall 0.0  
Snow Depth 0.00 in    
Sea Level Pressure  
Sea Level Pressure 30.00 in    
Wind  
Wind Speed 7 mph (ENE)    
Max Wind Speed 22 mph    
Max Gust Speed 26 mph    
Visibility 10 miles    
Events Rain    
T = Trace of Precipitation, MM = Missing Value Source: NWS Daily Summary

Daily Weather History Graph

Daily Weather History Graph

Search for Another Location

Airport:

Trip Planner

Search our weather history database for the weather conditions in past years. The results will help you decide how hot, cold, wet, or windy it might be!

Date:

Astronomy

Nov. 01, 2011 Rise Set
Actual Time 6:28 AM HST 5:50 PM HST
Civil Twilight 6:05 AM HST 6:12 PM HST
Nautical Twilight 5:39 AM HST 6:39 PM HST
Astronomical Twilight 5:12 AM HST 7:05 PM HST
Moon 12:15 PM HST (11/1) 11:47 PM HST (11/1)
Length of Visible Light 12h 07m
Length of Day
11h 21m
Waxing Crescent, 42% of the Moon is Illuminated
Nov 1
Waxing Crescent
Nov 2
First Quarter
Nov 10
Full
Nov 18
Last Quarter
Nov 24
New

Hourly Weather History & Observations

Time (HST) Temp. Heat Index Dew Point Humidity Pressure Visibility Wind Dir Wind Speed Gust Speed Precip Events Conditions
12:54 AM 71.1 °F - 66.0 °F 84% 29.99 in 10.0 mi Calm Calm - N/A   Clear
1:54 AM 71.1 °F - 64.9 °F 81% 29.98 in 10.0 mi ESE 5.8 mph - N/A   Clear
2:54 AM 70.0 °F - 64.9 °F 84% 29.97 in 10.0 mi ENE 3.5 mph - N/A   Clear
3:54 AM 68.0 °F - 64.0 °F 87% 29.97 in 10.0 mi SSE 3.5 mph - N/A   Clear
4:54 AM 68.0 °F - 64.0 °F 87% 29.97 in 10.0 mi SE 3.5 mph - N/A   Clear
5:54 AM 68.0 °F - 64.0 °F 87% 29.98 in 10.0 mi Calm Calm - N/A   Clear
6:54 AM 68.0 °F - 63.0 °F 84% 30.00 in 9.0 mi ESE 5.8 mph - N/A   Clear
7:54 AM 71.1 °F - 64.9 °F 81% 30.02 in 10.0 mi Calm Calm - N/A   Partly Cloudy
8:54 AM 79.0 °F - 66.9 °F 66% 30.03 in 10.0 mi NNW 4.6 mph - N/A   Partly Cloudy
9:54 AM 82.0 °F 84.1 °F 66.0 °F 58% 30.03 in 10.0 mi Variable 5.8 mph - N/A   Scattered Clouds
10:54 AM 82.0 °F 84.5 °F 66.9 °F 60% 30.02 in 10.0 mi NE 18.4 mph - N/A   Scattered Clouds
11:54 AM 84.0 °F 86.3 °F 66.0 °F 55% 30.01 in 10.0 mi ENE 17.3 mph 23.0 mph N/A   Scattered Clouds
12:54 PM 84.9 °F 86.6 °F 64.9 °F 51% 29.98 in 10.0 mi ENE 15.0 mph 21.9 mph N/A   Scattered Clouds
12:57 PM 80.6 °F 82.4 °F 64.9 °F 59% 29.98 in 10.0 mi SE 9.2 mph 21.9 mph N/A   Scattered Clouds
1:54 PM 79.0 °F - 64.9 °F 62% 29.97 in 10.0 mi SE 4.6 mph 16.1 mph N/A   Scattered Clouds
2:54 PM 81.0 °F 82.7 °F 64.9 °F 58% 29.96 in 10.0 mi NE 12.7 mph - N/A   Scattered Clouds
3:54 PM 79.0 °F - 66.0 °F 64% 29.96 in 10.0 mi NE 15.0 mph - N/A   Scattered Clouds
4:54 PM 79.0 °F - 64.9 °F 62% 29.96 in 10.0 mi ENE 13.8 mph - N/A   Scattered Clouds
5:54 PM 75.9 °F - 64.9 °F 69% 29.99 in 10.0 mi ENE 15.0 mph 20.7 mph N/A   Scattered Clouds
6:54 PM 75.0 °F - 64.0 °F 69% 30.01 in 10.0 mi ENE 8.1 mph - N/A   Scattered Clouds
7:54 PM 73.9 °F - 64.9 °F 73% 30.03 in 10.0 mi East 9.2 mph - N/A   Clear
8:23 PM 73.4 °F - 66.2 °F 78% 30.03 in 9.0 mi NE 15.0 mph - 0.00 in Rain Rain
8:54 PM 72.0 °F - 66.9 °F 84% 30.04 in 9.0 mi NE 12.7 mph 17.3 mph 0.02 in Rain Light Rain
9:54 PM 73.0 °F - 68.0 °F 84% 30.04 in 10.0 mi NE 17.3 mph - 0.00 in   Clear
10:54 PM 73.0 °F - 66.9 °F 81% 30.04 in 10.0 mi NNE 11.5 mph - N/A   Clear
11:54 PM 72.0 °F - 66.0 °F 81% 30.04 in 10.0 mi ENE 11.5 mph - N/A   Clear